PRIVATE WETTERSTATION BILLIGHEIM-ALLFELD                       ZURCK
Wetterdaten: Mittwoch, 15.06.2016
Datum Zeit Temp. A. Temp. A. min Temp. A. max Feuchte A. Luftdruck Regen Wind Richtung Richtung Sonnenschein ET Solar Taupunkt Windchill Windben Empfang
15.06.2016 00:00 12,6 C 12,6 C 12,7 C 91 % 1001,3 hPa 0,0 l/m 0,0 km/h (0 Bft) N 0 0 min 0,000 mm 0 W/m 11,2 C 12,6 C 0,0 km/h (0 Bft) 97 %
15.06.2016 00:10 12,6 C 12,6 C 12,6 C 91 % 1001,3 hPa 0,0 l/m 0,0 km/h (0 Bft) S-SW 202 0 min 0,000 mm 0 W/m 11,2 C 12,6 C 1,6 km/h (1 Bft) 98 %
15.06.2016 00:20 12,4 C 12,4 C 12,6 C 91 % 1001,2 hPa 0,0 l/m 0,0 km/h (0 Bft) N 0 0 min 0,000 mm 0 W/m 11,0 C 12,4 C 0,0 km/h (0 Bft) 96 %
15.06.2016 00:30 12,4 C 12,4 C 12,4 C 91 % 1001,1 hPa 0,0 l/m 0,0 km/h (0 Bft) N 0 0 min 0,000 mm 0 W/m 11,0 C 12,4 C 0,0 km/h (0 Bft) 98 %
15.06.2016 00:40 12,4 C 12,4 C 12,4 C 91 % 1001,0 hPa 0,0 l/m 0,0 km/h (0 Bft) N 0 0 min 0,000 mm 0 W/m 11,0 C 12,4 C 0,0 km/h (0 Bft) 98 %
15.06.2016 00:50 12,3 C 12,3 C 12,4 C 91 % 1000,8 hPa 0,0 l/m 0,0 km/h (0 Bft) S-SW 202 0 min 0,000 mm 0 W/m 10,9 C 12,3 C 1,6 km/h (1 Bft) 97 %
15.06.2016 01:00 12,2 C 12,2 C 12,3 C 91 % 1000,8 hPa 0,0 l/m 0,0 km/h (0 Bft) S-SW 202 0 min 0,000 mm 0 W/m 10,8 C 12,2 C 1,6 km/h (1 Bft) 98 %
15.06.2016 01:10 12,1 C 12,1 C 12,2 C 91 % 1000,7 hPa 0,0 l/m 0,0 km/h (0 Bft) S-SW 202 0 min 0,000 mm 0 W/m 10,7 C 12,1 C 4,8 km/h (1 Bft) 97 %
15.06.2016 01:20 12,0 C 12,0 C 12,1 C 91 % 1000,6 hPa 0,0 l/m 0,0 km/h (0 Bft) S-SW 202 0 min 0,000 mm 0 W/m 10,6 C 12,0 C 1,6 km/h (1 Bft) 98 %
15.06.2016 01:30 12,1 C 12,0 C 12,1 C 91 % 1000,7 hPa 0,0 l/m 0,0 km/h (0 Bft) N 0 0 min 0,000 mm 0 W/m 10,7 C 12,1 C 0,0 km/h (0 Bft) 96 %
15.06.2016 01:40 12,0 C 12,0 C 12,1 C 91 % 1000,9 hPa 0,0 l/m 0,0 km/h (0 Bft) N 0 0 min 0,000 mm 0 W/m 10,6 C 12,0 C 0,0 km/h (0 Bft) 97 %
15.06.2016 01:50 11,9 C 11,9 C 12,0 C 91 % 1001,1 hPa 0,0 l/m 1,6 km/h (1 Bft) SO 135 0 min 0,000 mm 0 W/m 10,5 C 11,9 C 9,7 km/h (2 Bft) 89 %
15.06.2016 02:00 11,8 C 11,8 C 11,9 C 91 % 1001,2 hPa 0,0 l/m 0,0 km/h (0 Bft) W 270 0 min 0,000 mm 0 W/m 10,4 C 11,8 C 9,7 km/h (2 Bft) 97 %
15.06.2016 02:10 11,8 C 11,7 C 11,8 C 91 % 1001,3 hPa 0,0 l/m 0,0 km/h (0 Bft) SW 225 0 min 0,000 mm 0 W/m 10,4 C 11,8 C 1,6 km/h (1 Bft) 97 %
15.06.2016 02:20 11,8 C 11,8 C 11,8 C 91 % 1001,1 hPa 0,0 l/m 0,0 km/h (0 Bft) SO 135 0 min 0,000 mm 0 W/m 10,4 C 11,8 C 1,6 km/h (1 Bft) 97 %
15.06.2016 02:30 11,7 C 11,7 C 11,8 C 91 % 1000,8 hPa 0,0 l/m 0,0 km/h (0 Bft) SO 135 0 min 0,000 mm 0 W/m 10,3 C 11,7 C 6,4 km/h (2 Bft) 98 %
15.06.2016 02:40 11,7 C 11,7 C 11,7 C 91 % 1000,8 hPa 0,0 l/m 0,0 km/h (0 Bft) SO 135 0 min 0,000 mm 0 W/m 10,3 C 11,7 C 1,6 km/h (1 Bft) 97 %
15.06.2016 02:50 11,6 C 11,6 C 11,7 C 91 % 1000,8 hPa 0,0 l/m 1,6 km/h (1 Bft) SO 135 0 min 0,000 mm 0 W/m 10,2 C 11,6 C 3,2 km/h (1 Bft) 98 %
15.06.2016 03:00 11,6 C 11,6 C 11,6 C 91 % 1000,7 hPa 0,0 l/m 0,0 km/h (0 Bft) SO 135 0 min 0,000 mm 0 W/m 10,2 C 11,6 C 4,8 km/h (1 Bft) 98 %
15.06.2016 03:10 11,6 C 11,6 C 11,6 C 91 % 1000,7 hPa 0,0 l/m 0,0 km/h (0 Bft) SO 135 0 min 0,000 mm 0 W/m 10,2 C 11,6 C 3,2 km/h (1 Bft) 96 %
15.06.2016 03:20 11,6 C 11,6 C 11,6 C 91 % 1000,7 hPa 0,0 l/m 0,0 km/h (0 Bft) N 0 0 min 0,000 mm 0 W/m 10,2 C 11,6 C 0,0 km/h (0 Bft) 98 %
15.06.2016 03:30 11,6 C 11,6 C 11,6 C 91 % 1000,7 hPa 0,0 l/m 0,0 km/h (0 Bft) SO 135 0 min 0,000 mm 0 W/m 10,2 C 11,6 C 4,8 km/h (1 Bft) 97 %
15.06.2016 03:40 11,4 C 11,4 C 11,6 C 91 % 1000,5 hPa 0,0 l/m 0,0 km/h (0 Bft) N 0 0 min 0,000 mm 0 W/m 10,0 C 11,4 C 0,0 km/h (0 Bft) 97 %
15.06.2016 03:50 11,3 C 11,3 C 11,4 C 91 % 1000,4 hPa 0,0 l/m 0,0 km/h (0 Bft) N 0 0 min 0,000 mm 0 W/m 9,9 C 11,3 C 0,0 km/h (0 Bft) 97 %
15.06.2016 04:00 11,3 C 11,3 C 11,3 C 91 % 1000,3 hPa 0,0 l/m 0,0 km/h (0 Bft) N 0 0 min 0,000 mm 0 W/m 9,9 C 11,3 C 0,0 km/h (0 Bft) 98 %
15.06.2016 04:10 11,2 C 11,2 C 11,3 C 91 % 1000,1 hPa 0,0 l/m 0,0 km/h (0 Bft) N 0 0 min 0,000 mm 0 W/m 9,8 C 11,2 C 0,0 km/h (0 Bft) 98 %
15.06.2016 04:20 11,2 C 11,2 C 11,2 C 91 % 1000,2 hPa 0,0 l/m 0,0 km/h (0 Bft) N 0 0 min 0,000 mm 0 W/m 9,8 C 11,2 C 0,0 km/h (0 Bft) 97 %
15.06.2016 04:30 11,2 C 11,1 C 11,2 C 91 % 1000,2 hPa 0,0 l/m 0,0 km/h (0 Bft) SO 135 0 min 0,000 mm 0 W/m 9,8 C 11,2 C 4,8 km/h (1 Bft) 98 %
15.06.2016 04:40 11,1 C 11,1 C 11,2 C 91 % 1000,2 hPa 0,0 l/m 0,0 km/h (0 Bft) SO 135 0 min 0,000 mm 0 W/m 9,7 C 11,1 C 1,6 km/h (1 Bft) 97 %
15.06.2016 04:50 10,9 C 10,9 C 11,1 C 91 % 1000,1 hPa 0,0 l/m 1,6 km/h (1 Bft) SO 135 0 min 0,000 mm 0 W/m 9,5 C 10,9 C 4,8 km/h (1 Bft) 97 %
15.06.2016 05:00 10,9 C 10,9 C 11,0 C 91 % 1000,1 hPa 0,0 l/m 0,0 km/h (0 Bft) N 0 0 min 0,000 mm 0 W/m 9,5 C 10,9 C 0,0 km/h (0 Bft) 97 %
15.06.2016 05:10 10,8 C 10,8 C 10,9 C 91 % 1000,0 hPa 0,0 l/m 0,0 km/h (0 Bft) SO 135 0 min 0,000 mm 0 W/m 9,4 C 10,8 C 1,6 km/h (1 Bft) 88 %
15.06.2016 05:20 10,8 C 10,8 C 10,8 C 91 % 1000,1 hPa 0,0 l/m 1,6 km/h (1 Bft) SO 135 0 min 0,000 mm 0 W/m 9,4 C 10,8 C 6,4 km/h (2 Bft) 98 %
15.06.2016 05:30 10,8 C 10,8 C 10,8 C 91 % 999,9 hPa 0,0 l/m 0,0 km/h (0 Bft) N 0 0 min 0,000 mm 0 W/m 9,4 C 10,8 C 0,0 km/h (0 Bft) 97 %
15.06.2016 05:40 10,8 C 10,8 C 10,9 C 91 % 1000,0 hPa 0,0 l/m 0,0 km/h (0 Bft) N 0 0 min 0,000 mm 5 W/m 9,4 C 10,8 C 0,0 km/h (0 Bft) 98 %
15.06.2016 05:50 10,9 C 10,8 C 10,9 C 91 % 999,7 hPa 0,0 l/m 0,0 km/h (0 Bft) SO 135 0 min 0,000 mm 9 W/m 9,5 C 10,9 C 4,8 km/h (1 Bft) 96 %
15.06.2016 06:00 10,9 C 10,9 C 10,9 C 91 % 1000,0 hPa 0,0 l/m 0,0 km/h (0 Bft) N 0 0 min 0,000 mm 16 W/m 9,5 C 10,9 C 0,0 km/h (0 Bft) 98 %
15.06.2016 06:10 10,8 C 10,8 C 10,9 C 91 % 999,8 hPa 0,0 l/m 0,0 km/h (0 Bft) N 0 0 min 0,000 mm 21 W/m 9,4 C 10,8 C 0,0 km/h (0 Bft) 97 %
15.06.2016 06:20 10,8 C 10,8 C 10,8 C 91 % 999,9 hPa 0,0 l/m 0,0 km/h (0 Bft) N 0 0 min 0,000 mm 44 W/m 9,4 C 10,8 C 0,0 km/h (0 Bft) 97 %
15.06.2016 06:30 10,9 C 10,8 C 10,9 C 91 % 1000,1 hPa 0,0 l/m 0,0 km/h (0 Bft) N 0 0 min 0,000 mm 98 W/m 9,5 C 10,9 C 0,0 km/h (0 Bft) 98 %
15.06.2016 06:40 11,2 C 10,9 C 11,2 C 91 % 1000,3 hPa 0,0 l/m 0,0 km/h (0 Bft) N 0 0 min 0,000 mm 134 W/m 9,8 C 11,2 C 0,0 km/h (0 Bft) 97 %
15.06.2016 06:50 11,5 C 11,2 C 11,5 C 91 % 1000,3 hPa 0,0 l/m 0,0 km/h (0 Bft) N 0 0 min 0,000 mm 116 W/m 10,1 C 11,5 C 0,0 km/h (0 Bft) 98 %
15.06.2016 07:00 11,7 C 11,5 C 11,7 C 91 % 1000,2 hPa 0,0 l/m 0,0 km/h (0 Bft) N 0 0 min 0,025 mm 67 W/m 10,3 C 11,7 C 0,0 km/h (0 Bft) 97 %
15.06.2016 07:10 11,7 C 11,7 C 11,7 C 91 % 1000,3 hPa 0,0 l/m 0,0 km/h (0 Bft) N 0 0 min 0,000 mm 74 W/m 10,3 C 11,7 C 0,0 km/h (0 Bft) 97 %
15.06.2016 07:20 11,8 C 11,7 C 11,8 C 91 % 1000,3 hPa 0,0 l/m 0,0 km/h (0 Bft) SO 135 0 min 0,000 mm 67 W/m 10,4 C 11,8 C 3,2 km/h (1 Bft) 97 %
15.06.2016 07:30 11,8 C 11,7 C 11,8 C 91 % 1000,5 hPa 0,0 l/m 0,0 km/h (0 Bft) SO 135 0 min 0,000 mm 69 W/m 10,4 C 11,8 C 1,6 km/h (1 Bft) 97 %
15.06.2016 07:40 11,8 C 11,8 C 11,8 C 91 % 1000,6 hPa 0,0 l/m 0,0 km/h (0 Bft) N 0 0 min 0,000 mm 63 W/m 10,4 C 11,8 C 0,0 km/h (0 Bft) 97 %
15.06.2016 07:50 11,9 C 11,8 C 11,9 C 91 % 1000,6 hPa 0,0 l/m 0,0 km/h (0 Bft) N 0 0 min 0,000 mm 83 W/m 10,5 C 11,9 C 0,0 km/h (0 Bft) 98 %
15.06.2016 08:00 12,1 C 11,9 C 12,1 C 91 % 1000,7 hPa 0,0 l/m 0,0 km/h (0 Bft) N 0 0 min 0,025 mm 76 W/m 10,7 C 12,1 C 0,0 km/h (0 Bft) 98 %
15.06.2016 08:10 12,1 C 12,1 C 12,1 C 91 % 1000,8 hPa 0,0 l/m 0,0 km/h (0 Bft) SO 135 0 min 0,000 mm 93 W/m 10,7 C 12,1 C 1,6 km/h (1 Bft) 97 %
15.06.2016 08:20 12,1 C 12,1 C 12,1 C 91 % 1000,8 hPa 0,0 l/m 0,0 km/h (0 Bft) N 0 0 min 0,000 mm 111 W/m 10,7 C 12,1 C 0,0 km/h (0 Bft) 98 %
15.06.2016 08:30 12,2 C 12,1 C 12,2 C 91 % 1000,8 hPa 0,2 l/m 0,0 km/h (0 Bft) S-SO 157 0 min 0,000 mm 113 W/m 10,8 C 12,2 C 1,6 km/h (1 Bft) 97 %
15.06.2016 08:40 12,3 C 12,2 C 12,3 C 91 % 1000,7 hPa 0,0 l/m 1,6 km/h (1 Bft) S-SO 157 10 min 0,000 mm 183 W/m 10,9 C 12,3 C 4,8 km/h (1 Bft) 98 %
15.06.2016 08:50 12,4 C 12,3 C 12,4 C 91 % 1000,9 hPa 0,0 l/m 1,6 km/h (1 Bft) S-SO 157 0 min 0,000 mm 130 W/m 11,0 C 12,4 C 8,0 km/h (2 Bft) 97 %
15.06.2016 09:00 12,5 C 12,4 C 12,5 C 91 % 1001,0 hPa 0,2 l/m 1,6 km/h (1 Bft) S 180 0 min 0,051 mm 125 W/m 11,1 C 12,5 C 6,4 km/h (2 Bft) 98 %
15.06.2016 09:10 12,4 C 12,4 C 12,5 C 91 % 1000,9 hPa 0,0 l/m 0,0 km/h (0 Bft) S-SO 157 10 min 0,000 mm 181 W/m 11,0 C 12,4 C 6,4 km/h (2 Bft) 98 %
15.06.2016 09:20 12,7 C 12,4 C 12,7 C 91 % 1001,0 hPa 0,0 l/m 0,0 km/h (0 Bft) S-SO 157 10 min 0,000 mm 234 W/m 11,3 C 12,7 C 3,2 km/h (1 Bft) 97 %
15.06.2016 09:30 12,9 C 12,7 C 12,9 C 91 % 1001,0 hPa 0,0 l/m 1,6 km/h (1 Bft) S 180 10 min 0,000 mm 213 W/m 11,5 C 12,9 C 8,0 km/h (2 Bft) 98 %
15.06.2016 09:40 12,8 C 12,8 C 12,9 C 91 % 1001,1 hPa 0,0 l/m 0,0 km/h (0 Bft) S-SO 157 0 min 0,000 mm 142 W/m 11,4 C 12,8 C 1,6 km/h (1 Bft) 97 %
15.06.2016 09:50 12,8 C 12,8 C 12,9 C 91 % 1001,1 hPa 0,0 l/m 1,6 km/h (1 Bft) S-SO 157 0 min 0,000 mm 134 W/m 11,4 C 12,8 C 9,7 km/h (2 Bft) 97 %
15.06.2016 10:00 12,7 C 12,7 C 12,8 C 94 % 1001,0 hPa 0,0 l/m 3,2 km/h (1 Bft) S-SO 157 0 min 0,076 mm 100 W/m 11,8 C 12,7 C 8,0 km/h (2 Bft) 98 %
15.06.2016 10:10 12,7 C 12,7 C 12,7 C 91 % 1001,0 hPa 0,0 l/m 0,0 km/h (0 Bft) S-SO 157 10 min 0,000 mm 199 W/m 11,3 C 12,7 C 1,6 km/h (1 Bft) 97 %
15.06.2016 10:20 12,9 C 12,7 C 12,9 C 91 % 1000,9 hPa 0,0 l/m 3,2 km/h (1 Bft) S-SO 157 10 min 0,000 mm 290 W/m 11,5 C 12,9 C 8,0 km/h (2 Bft) 98 %
15.06.2016 10:30 13,1 C 12,9 C 13,1 C 91 % 1001,0 hPa 0,0 l/m 1,6 km/h (1 Bft) S-SO 157 10 min 0,000 mm 360 W/m 11,7 C 13,1 C 9,7 km/h (2 Bft) 97 %
15.06.2016 10:40 13,4 C 13,1 C 13,4 C 91 % 1000,9 hPa 0,0 l/m 0,0 km/h (0 Bft) S-SO 157 10 min 0,000 mm 332 W/m 12,0 C 13,4 C 1,6 km/h (1 Bft) 98 %
15.06.2016 10:50 13,6 C 13,4 C 13,6 C 91 % 1001,0 hPa 0,0 l/m 1,6 km/h (1 Bft) S-SO 157 10 min 0,000 mm 329 W/m 12,2 C 13,6 C 8,0 km/h (2 Bft) 98 %
15.06.2016 11:00 13,8 C 13,5 C 13,9 C 91 % 1000,9 hPa 0,0 l/m 1,6 km/h (1 Bft) S 180 10 min 0,127 mm 403 W/m 12,4 C 13,8 C 9,7 km/h (2 Bft) 97 %
15.06.2016 11:10 13,9 C 13,7 C 13,9 C 91 % 1000,9 hPa 0,0 l/m 1,6 km/h (1 Bft) S 180 10 min 0,000 mm 373 W/m 12,5 C 13,9 C 11,3 km/h (2 Bft) 98 %
15.06.2016 11:20 14,4 C 13,9 C 14,4 C 91 % 1000,9 hPa 0,0 l/m 6,4 km/h (2 Bft) S-SW 202 10 min 0,000 mm 476 W/m 12,9 C 14,4 C 14,5 km/h (3 Bft) 97 %
15.06.2016 11:30 14,6 C 14,4 C 14,6 C 91 % 1001,0 hPa 0,0 l/m 3,2 km/h (1 Bft) S 180 10 min 0,000 mm 483 W/m 13,1 C 14,6 C 11,3 km/h (2 Bft) 98 %
15.06.2016 11:40 14,5 C 14,4 C 14,6 C 91 % 1001,0 hPa 0,0 l/m 1,6 km/h (1 Bft) S-SO 157 10 min 0,000 mm 306 W/m 13,0 C 14,5 C 11,3 km/h (2 Bft) 97 %
15.06.2016 11:50 14,7 C 14,6 C 14,7 C 91 % 1000,9 hPa 0,0 l/m 1,6 km/h (1 Bft) S 180 10 min 0,000 mm 355 W/m 13,2 C 14,7 C 11,3 km/h (2 Bft) 98 %
15.06.2016 12:00 14,6 C 14,6 C 14,7 C 91 % 1000,9 hPa 0,0 l/m 1,6 km/h (1 Bft) S-SO 157 10 min 0,178 mm 329 W/m 13,1 C 14,6 C 11,3 km/h (2 Bft) 98 %
15.06.2016 12:10 14,5 C 14,5 C 14,6 C 90 % 1000,9 hPa 0,0 l/m 3,2 km/h (1 Bft) S-SO 157 10 min 0,000 mm 281 W/m 12,9 C 14,5 C 14,5 km/h (3 Bft) 98 %
15.06.2016 12:20 14,2 C 14,2 C 14,5 C 90 % 1001,1 hPa 0,0 l/m 6,4 km/h (2 Bft) SO 135 10 min 0,000 mm 264 W/m 12,6 C 14,2 C 16,1 km/h (3 Bft) 97 %
15.06.2016 12:30 14,2 C 14,1 C 14,2 C 91 % 1001,1 hPa 0,0 l/m 3,2 km/h (1 Bft) S 180 10 min 0,000 mm 329 W/m 12,8 C 14,2 C 12,9 km/h (3 Bft) 98 %
15.06.2016 12:40 14,6 C 14,2 C 14,6 C 91 % 1001,1 hPa 0,0 l/m 1,6 km/h (1 Bft) S-SO 157 10 min 0,000 mm 378 W/m 13,1 C 14,6 C 9,7 km/h (2 Bft) 97 %
15.06.2016 12:50 14,7 C 14,6 C 14,7 C 91 % 1000,9 hPa 0,0 l/m 1,6 km/h (1 Bft) S-SO 157 10 min 0,000 mm 352 W/m 13,2 C 14,7 C 8,0 km/h (2 Bft) 98 %
15.06.2016 13:00 15,3 C 14,7 C 15,3 C 91 % 1000,9 hPa 0,0 l/m 1,6 km/h (1 Bft) S-SW 202 10 min 0,178 mm 893 W/m 13,8 C 15,3 C 9,7 km/h (2 Bft) 98 %
15.06.2016 13:10 15,9 C 15,3 C 15,9 C 89 % 1000,8 hPa 0,0 l/m 4,8 km/h (1 Bft) S-SW 202 10 min 0,000 mm 933 W/m 14,1 C 15,9 C 11,3 km/h (2 Bft) 98 %
15.06.2016 13:20 16,6 C 15,9 C 16,6 C 86 % 1000,9 hPa 0,0 l/m 6,4 km/h (2 Bft) S-SO 157 10 min 0,000 mm 1260 W/m 14,2 C 16,6 C 19,3 km/h (3 Bft) 98 %
15.06.2016 13:30 16,6 C 16,4 C 16,6 C 83 % 1000,9 hPa 0,0 l/m 4,8 km/h (1 Bft) S-SO 157 10 min 0,000 mm 348 W/m 13,7 C 16,6 C 19,3 km/h (3 Bft) 98 %
15.06.2016 13:40 16,8 C 16,6 C 16,8 C 83 % 1000,9 hPa 0,0 l/m 8,0 km/h (2 Bft) S-SW 202 10 min 0,000 mm 313 W/m 13,9 C 16,0 C 20,9 km/h (4 Bft) 98 %
15.06.2016 13:50 16,8 C 16,7 C 16,8 C 81 % 1001,0 hPa 0,0 l/m 8,0 km/h (2 Bft) S-SW 202 10 min 0,000 mm 1248 W/m 13,5 C 16,0 C 19,3 km/h (3 Bft) 97 %
15.06.2016 14:00 17,4 C 16,8 C 17,4 C 81 % 1000,9 hPa 0,0 l/m 4,8 km/h (1 Bft) S-SW 202 10 min 0,330 mm 1044 W/m 14,1 C 17,4 C 17,7 km/h (3 Bft) 99 %
15.06.2016 14:10 17,4 C 17,4 C 17,6 C 78 % 1000,9 hPa 0,0 l/m 8,0 km/h (2 Bft) S-SW 202 10 min 0,000 mm 380 W/m 13,5 C 16,6 C 27,4 km/h (4 Bft) 98 %
15.06.2016 14:20 17,6 C 17,4 C 17,6 C 77 % 1000,9 hPa 0,0 l/m 11,3 km/h (2 Bft) S-SW 202 10 min 0,000 mm 680 W/m 13,5 C 15,5 C 27,4 km/h (4 Bft) 99 %
15.06.2016 14:30 17,8 C 17,6 C 17,8 C 80 % 1000,8 hPa 0,0 l/m 9,7 km/h (2 Bft) S-SW 202 10 min 0,000 mm 889 W/m 14,3 C 16,3 C 22,5 km/h (4 Bft) 98 %
15.06.2016 14:40 17,5 C 17,5 C 17,9 C 75 % 1000,9 hPa 0,0 l/m 8,0 km/h (2 Bft) S-SW 202 10 min 0,000 mm 281 W/m 13,0 C 16,7 C 20,9 km/h (4 Bft) 98 %
15.06.2016 14:50 16,6 C 16,6 C 17,4 C 81 % 1000,8 hPa 0,0 l/m 6,4 km/h (2 Bft) S-SO 157 10 min 0,000 mm 174 W/m 13,3 C 16,6 C 17,7 km/h (3 Bft) 97 %
15.06.2016 15:00 15,6 C 15,6 C 16,6 C 84 % 1001,0 hPa 1,4 l/m 9,7 km/h (2 Bft) S-SO 157 10 min 0,203 mm 153 W/m 12,9 C 13,9 C 20,9 km/h (4 Bft) 96 %
15.06.2016 15:10 15,1 C 15,1 C 15,6 C 89 % 1000,8 hPa 0,4 l/m 4,8 km/h (1 Bft) SO 135 10 min 0,000 mm 519 W/m 13,3 C 15,1 C 19,3 km/h (3 Bft) 98 %
15.06.2016 15:20 15,6 C 15,1 C 15,6 C 90 % 1001,1 hPa 0,0 l/m 1,6 km/h (1 Bft) S-SW 202 10 min 0,000 mm 626 W/m 14,0 C 15,6 C 8,0 km/h (2 Bft) 97 %
15.06.2016 15:30 15,9 C 15,6 C 15,9 C 90 % 1001,2 hPa 0,0 l/m 4,8 km/h (1 Bft) SW 225 10 min 0,000 mm 415 W/m 14,3 C 15,9 C 16,1 km/h (3 Bft) 97 %
15.06.2016 15:40 16,2 C 15,9 C 16,2 C 88 % 1001,3 hPa 0,0 l/m 8,0 km/h (2 Bft) S-SW 202 10 min 0,000 mm 596 W/m 14,2 C 15,4 C 20,9 km/h (4 Bft) 97 %
15.06.2016 15:50 16,4 C 16,2 C 16,4 C 86 % 1001,3 hPa 0,0 l/m 12,9 km/h (3 Bft) S-SW 202 10 min 0,000 mm 585 W/m 14,1 C 13,6 C 24,1 km/h (4 Bft) 98 %
15.06.2016 16:00 16,6 C 16,4 C 16,6 C 85 % 1001,4 hPa 0,0 l/m 11,3 km/h (2 Bft) SW 225 10 min 0,254 mm 696 W/m 14,1 C 14,4 C 22,5 km/h (4 Bft) 97 %
15.06.2016 16:10 17,0 C 16,6 C 17,0 C 76 % 1001,4 hPa 0,0 l/m 8,0 km/h (2 Bft) W-NW 292 10 min 0,000 mm 721 W/m 12,7 C 16,2 C 20,9 km/h (4 Bft) 97 %
15.06.2016 16:20 17,4 C 17,0 C 17,4 C 74 % 1001,2 hPa 0,0 l/m 9,7 km/h (2 Bft) W-SW 247 10 min 0,000 mm 724 W/m 12,7 C 15,9 C 24,1 km/h (4 Bft) 98 %
15.06.2016 16:30 17,8 C 17,4 C 17,8 C 75 % 1001,2 hPa 0,0 l/m 9,7 km/h (2 Bft) W-SW 247 10 min 0,000 mm 371 W/m 13,3 C 16,3 C 24,1 km/h (4 Bft) 97 %
15.06.2016 16:40 18,2 C 17,8 C 18,2 C 72 % 1001,1 hPa 0,0 l/m 12,9 km/h (3 Bft) W-SW 247 10 min 0,000 mm 199 W/m 13,1 C 15,7 C 24,1 km/h (4 Bft) 98 %
15.06.2016 16:50 18,3 C 18,2 C 18,3 C 69 % 1001,3 hPa 0,0 l/m 12,9 km/h (3 Bft) W 270 10 min 0,000 mm 155 W/m 12,5 C 15,8 C 27,4 km/h (4 Bft) 98 %
15.06.2016 17:00 18,2 C 18,1 C 18,3 C 75 % 1001,2 hPa 0,0 l/m 4,8 km/h (1 Bft) W 270 10 min 0,203 mm 236 W/m 13,7 C 18,2 C 17,7 km/h (3 Bft) 98 %
15.06.2016 17:10 18,3 C 18,2 C 18,3 C 72 % 1001,2 hPa 0,0 l/m 3,2 km/h (1 Bft) SW 225 10 min 0,000 mm 162 W/m 13,2 C 18,3 C 14,5 km/h (3 Bft) 99 %
15.06.2016 17:20 18,6 C 18,3 C 18,6 C 69 % 1001,1 hPa 0,0 l/m 4,8 km/h (1 Bft) W-NW 292 0 min 0,000 mm 109 W/m 12,8 C 18,6 C 14,5 km/h (3 Bft) 100 %
15.06.2016 17:30 18,2 C 18,1 C 18,5 C 64 % 1001,4 hPa 0,0 l/m 6,4 km/h (2 Bft) W-SW 247 10 min 0,000 mm 223 W/m 11,3 C 18,2 C 22,5 km/h (4 Bft) 100 %
15.06.2016 17:40 17,8 C 17,8 C 18,1 C 68 % 1001,5 hPa 0,0 l/m 9,7 km/h (2 Bft) W-SW 247 10 min 0,000 mm 260 W/m 11,8 C 16,3 C 27,4 km/h (4 Bft) 99 %
15.06.2016 17:50 17,9 C 17,8 C 17,9 C 69 % 1001,5 hPa 0,0 l/m 8,0 km/h (2 Bft) W 270 10 min 0,000 mm 257 W/m 12,1 C 17,1 C 20,9 km/h (4 Bft) 99 %
15.06.2016 18:00 18,2 C 17,9 C 18,2 C 68 % 1001,5 hPa 0,0 l/m 6,4 km/h (2 Bft) W 270 10 min 0,127 mm 236 W/m 12,2 C 18,2 C 20,9 km/h (4 Bft) 100 %
15.06.2016 18:10 18,2 C 18,2 C 18,2 C 68 % 1001,4 hPa 0,0 l/m 4,8 km/h (1 Bft) SW 225 0 min 0,000 mm 142 W/m 12,2 C 18,2 C 16,1 km/h (3 Bft) 99 %
15.06.2016 18:20 18,1 C 18,1 C 18,2 C 68 % 1001,4 hPa 0,0 l/m 6,4 km/h (2 Bft) SW 225 0 min 0,000 mm 104 W/m 12,1 C 18,1 C 20,9 km/h (4 Bft) 100 %
15.06.2016 18:30 18,0 C 18,0 C 18,1 C 68 % 1001,0 hPa 0,0 l/m 9,7 km/h (2 Bft) SW 225 0 min 0,000 mm 148 W/m 12,0 C 16,5 C 22,5 km/h (4 Bft) 99 %
15.06.2016 18:40 17,9 C 17,9 C 18,1 C 70 % 1001,0 hPa 0,0 l/m 9,7 km/h (2 Bft) SW 225 10 min 0,000 mm 153 W/m 12,3 C 16,4 C 20,9 km/h (4 Bft) 100 %
15.06.2016 18:50 17,6 C 17,6 C 17,9 C 71 % 1001,1 hPa 0,0 l/m 8,0 km/h (2 Bft) S-SW 202 10 min 0,000 mm 165 W/m 12,3 C 16,8 C 24,1 km/h (4 Bft) 99 %
15.06.2016 19:00 17,4 C 17,4 C 17,6 C 73 % 1001,1 hPa 0,0 l/m 3,2 km/h (1 Bft) S-SW 202 10 min 0,102 mm 165 W/m 12,5 C 17,4 C 16,1 km/h (3 Bft) 100 %
15.06.2016 19:10 17,1 C 17,1 C 17,6 C 75 % 1001,0 hPa 0,0 l/m 5,9 km/h (2 Bft) S-SO 164 0 min 0,001 mm 83 W/m 12,6 C 17,1 C 16,1 km/h (3 Bft) 97 %
15.06.2016 19:20 16,6 C 16,6 C 17,1 C 77 % 1001,2 hPa 0,0 l/m 4,8 km/h (1 Bft) S 187 0 min 0,000 mm 79 W/m 12,5 C 16,6 C 19,3 km/h (3 Bft) 98 %
15.06.2016 19:30 16,1 C 16,1 C 16,6 C 79 % 1001,5 hPa 0,0 l/m 6,8 km/h (2 Bft) S-SW 192 0 min 0,000 mm 74 W/m 12,5 C 15,9 C 19,3 km/h (3 Bft) 97 %
15.06.2016 19:40 15,7 C 15,7 C 16,1 C 80 % 1001,5 hPa 0,0 l/m 6,1 km/h (2 Bft) S 177 0 min 0,000 mm 63 W/m 12,3 C 15,7 C 17,7 km/h (3 Bft) 97 %
15.06.2016 19:50 15,4 C 15,4 C 15,7 C 80 % 1001,6 hPa 0,0 l/m 6,6 km/h (2 Bft) S-SW 208 0 min 0,000 mm 47 W/m 12,0 C 15,3 C 17,7 km/h (3 Bft) 98 %
15.06.2016 20:00 15,1 C 15,1 C 15,4 C 81 % 1001,7 hPa 0,0 l/m 6,9 km/h (2 Bft) S-SW 208 0 min 0,000 mm 37 W/m 11,9 C 14,8 C 17,7 km/h (3 Bft) 97 %
15.06.2016 20:10 15,1 C 15,1 C 15,2 C 80 % 1001,7 hPa 0,0 l/m 6,2 km/h (2 Bft) S-SW 204 0 min 0,050 mm 26 W/m 11,7 C 15,1 C 16,1 km/h (3 Bft) 98 %
15.06.2016 20:20 15,1 C 15,1 C 15,1 C 80 % 1001,8 hPa 0,0 l/m 5,4 km/h (1 Bft) S-SW 207 0 min 0,000 mm 23 W/m 11,7 C 15,1 C 14,5 km/h (3 Bft) 97 %
15.06.2016 20:30 15,1 C 15,1 C 15,1 C 80 % 1001,9 hPa 0,0 l/m 1,8 km/h (1 Bft) S 180 0 min 0,000 mm 19 W/m 11,7 C 15,1 C 9,7 km/h (2 Bft) 97 %
15.06.2016 20:40 14,8 C 14,8 C 15,1 C 82 % 1001,9 hPa 0,0 l/m 0,5 km/h (0 Bft) SW 215 0 min 0,000 mm 18 W/m 11,8 C 14,8 C 6,4 km/h (2 Bft) 98 %
15.06.2016 20:50 14,6 C 14,6 C 14,8 C 82 % 1001,8 hPa 0,0 l/m 0,3 km/h (0 Bft) S-SW 200 0 min 0,000 mm 14 W/m 11,6 C 14,6 C 6,4 km/h (2 Bft) 97 %
15.06.2016 21:00 14,3 C 14,3 C 14,6 C 84 % 1001,9 hPa 0,0 l/m 0,0 km/h (0 Bft) S 178 0 min 0,026 mm 12 W/m 11,6 C 14,3 C 1,6 km/h (1 Bft) 98 %
15.06.2016 21:10 14,1 C 14,1 C 14,3 C 84 % 1001,9 hPa 0,0 l/m 0,0 km/h (0 Bft) N 0 0 min 0,000 mm 12 W/m 11,4 C 14,1 C 0,0 km/h (0 Bft) 100 %
15.06.2016 21:20 13,8 C 13,8 C 14,1 C 85 % 1002,0 hPa 0,0 l/m 0,0 km/h (0 Bft) S-SO 157 0 min 0,000 mm 9 W/m 11,3 C 13,8 C 1,6 km/h (1 Bft) 100 %
15.06.2016 21:30 13,6 C 13,6 C 13,8 C 86 % 1002,0 hPa 0,0 l/m 0,0 km/h (0 Bft) N 0 0 min 0,000 mm 5 W/m 11,3 C 13,6 C 0,0 km/h (0 Bft) 100 %
15.06.2016 21:40 13,2 C 13,2 C 13,6 C 87 % 1002,1 hPa 0,0 l/m 1,6 km/h (1 Bft) SO 135 0 min 0,000 mm 0 W/m 11,1 C 13,2 C 8,0 km/h (2 Bft) 89 %
15.06.2016 21:50 13,1 C 13,1 C 13,2 C 87 % 1002,2 hPa 0,0 l/m 3,2 km/h (1 Bft) O-SO 112 0 min 0,000 mm 0 W/m 11,0 C 13,1 C 8,0 km/h (2 Bft) 100 %
15.06.2016 22:00 13,2 C 13,1 C 13,2 C 87 % 1002,4 hPa 0,0 l/m 1,6 km/h (1 Bft) O-SO 112 0 min 0,000 mm 0 W/m 11,1 C 13,2 C 6,4 km/h (2 Bft) 100 %
15.06.2016 22:10 13,3 C 13,2 C 13,3 C 86 % 1002,6 hPa 0,0 l/m 0,0 km/h (0 Bft) O-SO 112 0 min 0,000 mm 0 W/m 11,0 C 13,3 C 1,6 km/h (1 Bft) 100 %
15.06.2016 22:20 13,2 C 13,2 C 13,3 C 87 % 1002,8 hPa 0,0 l/m 0,0 km/h (0 Bft) N 0 0 min 0,000 mm 0 W/m 11,1 C 13,2 C 0,0 km/h (0 Bft) 100 %
15.06.2016 22:30 12,9 C 12,9 C 13,2 C 88 % 1002,8 hPa 0,2 l/m 0,0 km/h (0 Bft) N 0 0 min 0,000 mm 0 W/m 11,0 C 12,9 C 0,0 km/h (0 Bft) 100 %
15.06.2016 22:40 12,5 C 12,5 C 12,8 C 88 % 1002,8 hPa 0,0 l/m 0,0 km/h (0 Bft) N 0 0 min 0,000 mm 0 W/m 10,6 C 12,5 C 0,0 km/h (0 Bft) 100 %
15.06.2016 22:50 12,2 C 12,2 C 12,5 C 89 % 1003,0 hPa 0,0 l/m 0,0 km/h (0 Bft) N 0 0 min 0,000 mm 0 W/m 10,4 C 12,2 C 0,0 km/h (0 Bft) 99 %
15.06.2016 23:00 11,9 C 11,9 C 12,2 C 89 % 1002,9 hPa 0,0 l/m 0,0 km/h (0 Bft) O-SO 112 0 min 0,000 mm 0 W/m 10,1 C 11,9 C 1,6 km/h (1 Bft) 100 %
15.06.2016 23:10 11,7 C 11,7 C 11,9 C 90 % 1003,0 hPa 0,0 l/m 0,0 km/h (0 Bft) N 0 0 min 0,000 mm 0 W/m 10,1 C 11,7 C 0,0 km/h (0 Bft) 100 %
15.06.2016 23:20 11,6 C 11,6 C 11,7 C 90 % 1002,9 hPa 0,0 l/m 0,0 km/h (0 Bft) N 0 0 min 0,000 mm 0 W/m 10,0 C 11,6 C 0,0 km/h (0 Bft) 100 %
15.06.2016 23:30 11,4 C 11,4 C 11,6 C 90 % 1003,0 hPa 0,0 l/m 0,0 km/h (0 Bft) N 0 0 min 0,000 mm 0 W/m 9,8 C 11,4 C 0,0 km/h (0 Bft) 100 %
15.06.2016 23:40 11,2 C 11,2 C 11,4 C 90 % 1003,0 hPa 0,0 l/m 0,0 km/h (0 Bft) N 0 0 min 0,000 mm 0 W/m 9,6 C 11,2 C 0,0 km/h (0 Bft) 100 %
15.06.2016 23:50 11,1 C 11,1 C 11,2 C 90 % 1003,0 hPa 0,0 l/m 0,0 km/h (0 Bft) N 0 0 min 0,000 mm 0 W/m 9,5 C 11,1 C 0,0 km/h (0 Bft) 100 %
_ Min-Zeit 05:10 05:10 05:20 17:30 05:50 - 00:00 - - - - - 05:10 05:10 00:00 05:10
Minimum _ 10,8 C 10,8 C 10,8 C 64 % 999,7 hPa - 0,0 km/h (0 Bft) - - - - - 9,4 C 10,8 C 0,0 km/h (0 Bft) 88 %
_ Max-Zeit 17:20 17:20 17:20 10:00 22:50 15:00 15:50 - - 08:40 14:00 13:20 14:30 17:20 14:10 18:00
Maximum _ 18,6 C 18,3 C 18,6 C 94 % 1003,0 hPa 1,4 l/m 12,9 km/h
S-SW (3 Bft)
- - 10 min 0,330 mm 1260 W/m 14,3 C 18,6 C 27,4 km/h
S-SW (4 Bft)
100 %
Durchschnitt _ 13,8 C 13,7 C 13,9 C 86 % 1001,1 hPa #2,4 l/m 2,7 km/h (1 Bft) S-SW - #9:00 h #1,956 mm 267 W/m 11,5 C 13,6 C 8,7 km/h (2 Bft) 98 %
PRIVATE WETTERSTATION BILLIGHEIM-ALLFELD - www.neckar-odenwald-wetter.de - Holger Sonntag